DECAYED

DMSP 5D-2 F13 DEB, 40492 (Decayed)

Orbit data source: Space-Track

DMSP 5D-2 F13 DEB, 40492 was space debris in SSO originally from a launch on Fri, 24 Mar 1995 UTC launched from the Air Force Western Test Range (AFWTR). Debris objects in space refer to the collection of defunct objects orbiting the Earth. Examples of debris include non-operational satellites, rocket bodies, and fragments generated from explosions, collisions, or faulty payload assembly.

Not visible in the next 10 days
Identifier
40492, 1995-015CF
Orbit
Decayed
Country
Flag of USUS
Related business
Manufacturer
Unknown
Mission
Decayed spacecraft
Bus & Motor
Unknown
Mass
Unknown
Launch date (UTC)
1995-03-24 (30 years ago)
Launch vehicle
Unknown
Launch site
Air Force Western Test Range (AFWTR)
Object type
Payload
Rocket body
Debris
Shape & HBR
Unknown
Radar Cross Section
Small (<0.1 m²)

Expand to show TLE details & history
Last TLE update: 11 months ago

TLE from 11 months ago
0 DMSP 5D-2 F13 DEB
1 40492U 95015CF  24285.35538687  .00258596  00000-0  81796-1 0  9992
2 40492  98.6332 316.8694 0023130 323.4972  36.4637 14.38120493498339
Epoch: 2024-10-11T08:31Z
TLE epoch observation values (Epoch: 2024-10-11T08:31:45.425Z)
Latitude
-0.00004°
Longitude
168.50337°
Altitude
754.381 km
Speed
7.484 km/s
True Right ascension
21h 07m 28s
True Declination
0° 00' 00"
Sunlit
Object was in full shadow at epoch
Visualization orbit readout
Latitude
Unknown
Longitude
Unknown
Altitude
Unknown
Speed
Unknown
Apparent Right ascension
Unknown
Apparent Declination
Unknown
Sunlit
N/A
Visualization observer readout
Local Sidereal Time
03:38:15
Azimuth
Unknown
Elevation
Unknown
Doppler factor
Unknown
Orbital elements
Apogee altitude
778.361 km
Perigee altitude
745.331 km
Semi-major axis
7,139.983 km
Eccentricity
0.00231
Inclination
98.6332°
RAAN
316.8694°
Arg. of periapsis
323.4972°
True anomaly
36.62159°
Mean anomaly
36.4637°
Eccentric anomaly
36.54261°
Mean motion
3.59747 °/min
Orbital period
100.07 mins
BSTAR
0.081796
Loading maneuver chart data...
Computing Atmospheric mass density...

Documentation

Showing up to 5 results
|